Year,Month,Day,Hour,Minute,Value (Times are PST for windspeed in km/hr)
2015,11,18,00,00,0.00
2015,11,18,00,01,0.00
2015,11,18,00,02,0.00
2015,11,18,00,03,0.00
2015,11,18,00,04,0.00
2015,11,18,00,05,0.00
2015,11,18,00,06,0.00
2015,11,18,00,07,0.00
2015,11,18,00,08,0.00
2015,11,18,00,09,0.00
2015,11,18,00,10,0.00
2015,11,18,00,11,0.50
2015,11,18,00,12,4.10
2015,11,18,00,13,7.30
2015,11,18,00,14,8.50
2015,11,18,00,15,7.70
2015,11,18,00,16,6.40
2015,11,18,00,17,11.70
2015,11,18,00,18,11.50
2015,11,18,00,19,7.20
2015,11,18,00,20,8.50
2015,11,18,00,21,4.20
2015,11,18,00,22,10.10
2015,11,18,00,23,9.20
2015,11,18,00,24,6.90
2015,11,18,00,25,6.00
2015,11,18,00,26,5.50
2015,11,18,00,27,2.50
2015,11,18,00,28,6.00
2015,11,18,00,29,11.10
2015,11,18,00,30,7.20
2015,11,18,00,31,3.30
2015,11,18,00,32,3.00
2015,11,18,00,33,2.90
2015,11,18,00,34,4.30
2015,11,18,00,35,4.30
2015,11,18,00,36,3.70
2015,11,18,00,37,1.50
2015,11,18,00,38,0.30
2015,11,18,00,39,0.00
2015,11,18,00,40,0.00
2015,11,18,00,41,0.00
2015,11,18,00,42,0.00
2015,11,18,00,43,0.00
2015,11,18,00,44,0.00
2015,11,18,00,45,0.00
2015,11,18,00,46,0.00
2015,11,18,00,47,0.00
2015,11,18,00,48,0.00
2015,11,18,00,49,0.00
2015,11,18,00,50,0.00
2015,11,18,00,51,0.00
2015,11,18,00,52,0.00
2015,11,18,00,53,2.20
2015,11,18,00,54,0.00
2015,11,18,00,55,0.00
2015,11,18,00,56,0.00
2015,11,18,00,57,0.00
2015,11,18,00,58,0.00
2015,11,18,00,59,0.00
2015,11,18,01,00,0.00
2015,11,18,01,01,0.00
2015,11,18,01,02,0.00
2015,11,18,01,03,0.00
2015,11,18,01,04,0.00
2015,11,18,01,05,0.00
2015,11,18,01,06,0.00
2015,11,18,01,07,0.00
2015,11,18,01,08,0.00
2015,11,18,01,09,0.00
2015,11,18,01,10,0.00
2015,11,18,01,11,0.00
2015,11,18,01,12,0.00
2015,11,18,01,13,0.00
2015,11,18,01,14,0.00
2015,11,18,01,15,0.00
2015,11,18,01,16,0.00
2015,11,18,01,17,0.00
2015,11,18,01,18,0.00
2015,11,18,01,19,0.00
2015,11,18,01,20,0.00
2015,11,18,01,21,0.00
2015,11,18,01,22,2.60
2015,11,18,01,23,1.60
2015,11,18,01,24,5.20
2015,11,18,01,25,0.00
2015,11,18,01,26,0.00
2015,11,18,01,27,3.60
2015,11,18,01,28,0.00
2015,11,18,01,29,0.00
2015,11,18,01,30,0.00
2015,11,18,01,31,0.00
2015,11,18,01,32,0.00
2015,11,18,01,33,0.00
2015,11,18,01,34,1.80
2015,11,18,01,35,0.00
2015,11,18,01,36,0.00
2015,11,18,01,37,0.00
2015,11,18,01,38,0.00
2015,11,18,01,39,0.00
2015,11,18,01,40,0.00
2015,11,18,01,41,0.00
2015,11,18,01,42,0.00
2015,11,18,01,43,0.00
2015,11,18,01,44,0.00
2015,11,18,01,45,0.00
2015,11,18,01,46,0.00
2015,11,18,01,47,0.00
2015,11,18,01,48,0.00
2015,11,18,01,49,0.00
2015,11,18,01,50,0.00
2015,11,18,01,51,0.00
2015,11,18,01,52,0.00
2015,11,18,01,53,0.00
2015,11,18,01,54,0.00
2015,11,18,01,55,0.00
2015,11,18,01,56,0.00
2015,11,18,01,57,0.00
2015,11,18,01,58,0.00
2015,11,18,01,59,0.00
2015,11,18,02,00,0.00
2015,11,18,02,01,0.00
2015,11,18,02,02,0.00
2015,11,18,02,03,0.00
2015,11,18,02,04,0.00
2015,11,18,02,05,0.00
2015,11,18,02,06,0.00
2015,11,18,02,07,0.00
2015,11,18,02,08,0.00
2015,11,18,02,09,0.00
2015,11,18,02,10,0.00
2015,11,18,02,11,0.00
2015,11,18,02,12,0.00
2015,11,18,02,13,0.00
2015,11,18,02,14,0.00
2015,11,18,02,15,0.00
2015,11,18,02,16,0.00
2015,11,18,02,17,0.00
2015,11,18,02,18,0.00
2015,11,18,02,19,0.00
2015,11,18,02,20,0.00
2015,11,18,02,21,0.00
2015,11,18,02,22,0.00
2015,11,18,02,23,0.00
2015,11,18,02,24,0.00
2015,11,18,02,25,0.00
2015,11,18,02,26,0.00
2015,11,18,02,27,0.00
2015,11,18,02,28,0.00
2015,11,18,02,29,0.00
2015,11,18,02,30,0.00
2015,11,18,02,31,0.00
2015,11,18,02,32,0.00
2015,11,18,02,33,0.00
2015,11,18,02,34,0.00
2015,11,18,02,35,0.70
2015,11,18,02,36,0.00
2015,11,18,02,37,0.00
2015,11,18,02,38,0.60
2015,11,18,02,39,0.00
2015,11,18,02,40,0.00
2015,11,18,02,41,0.60
2015,11,18,02,42,5.80
2015,11,18,02,43,7.60
2015,11,18,02,44,6.90
2015,11,18,02,45,2.30
2015,11,18,02,46,1.00
2015,11,18,02,47,0.70
2015,11,18,02,48,5.60
2015,11,18,02,49,5.10
2015,11,18,02,50,0.30
2015,11,18,02,51,2.40
2015,11,18,02,52,5.60
2015,11,18,02,53,6.10
2015,11,18,02,54,5.30
2015,11,18,02,55,0.60
2015,11,18,02,56,0.00
2015,11,18,02,57,3.60
2015,11,18,02,58,0.10
2015,11,18,02,59,2.20
2015,11,18,03,00,6.50
2015,11,18,03,01,2.30
2015,11,18,03,02,4.80
2015,11,18,03,03,0.00
2015,11,18,03,04,2.00
2015,11,18,03,05,0.50
2015,11,18,03,06,2.40
2015,11,18,03,07,3.40
2015,11,18,03,08,3.90
2015,11,18,03,09,5.60
2015,11,18,03,10,1.30
2015,11,18,03,11,1.70
2015,11,18,03,12,3.60
2015,11,18,03,13,4.60
2015,11,18,03,14,2.00
2015,11,18,03,15,0.90
2015,11,18,03,16,0.10
2015,11,18,03,17,0.00
2015,11,18,03,18,2.10
2015,11,18,03,19,4.20
2015,11,18,03,20,3.90
2015,11,18,03,21,1.40
2015,11,18,03,22,2.60
2015,11,18,03,23,2.70
2015,11,18,03,24,0.80
2015,11,18,03,25,7.50
2015,11,18,03,26,8.20
2015,11,18,03,27,5.80
2015,11,18,03,28,6.50
2015,11,18,03,29,10.10
2015,11,18,03,30,1.00
2015,11,18,03,31,6.20
2015,11,18,03,32,6.70
2015,11,18,03,33,10.70
2015,11,18,03,34,6.60
2015,11,18,03,35,10.10
2015,11,18,03,36,13.40
2015,11,18,03,37,10.10
2015,11,18,03,38,7.50
2015,11,18,03,39,9.40
2015,11,18,03,40,11.70
2015,11,18,03,41,8.90
2015,11,18,03,42,7.60
2015,11,18,03,43,8.10
2015,11,18,03,44,11.80
2015,11,18,03,45,8.60
2015,11,18,03,46,11.50
2015,11,18,03,47,11.90
2015,11,18,03,48,7.20
2015,11,18,03,49,8.00
2015,11,18,03,50,8.30
2015,11,18,03,51,8.10
2015,11,18,03,52,10.20
2015,11,18,03,53,7.10
2015,11,18,03,54,8.30
2015,11,18,03,55,5.80
2015,11,18,03,56,7.60
2015,11,18,03,57,9.30
2015,11,18,03,58,12.60
2015,11,18,03,59,15.50
2015,11,18,04,00,11.80
2015,11,18,04,01,13.40
2015,11,18,04,02,12.00
2015,11,18,04,03,11.50
2015,11,18,04,04,13.00
2015,11,18,04,05,10.50
2015,11,18,04,06,9.90
2015,11,18,04,07,18.60
2015,11,18,04,08,10.30
2015,11,18,04,09,9.40
2015,11,18,04,10,10.90
2015,11,18,04,11,9.10
2015,11,18,04,12,7.40
2015,11,18,04,13,5.60
2015,11,18,04,14,9.00
2015,11,18,04,15,1.90
2015,11,18,04,16,4.70
2015,11,18,04,17,4.30
2015,11,18,04,18,4.70
2015,11,18,04,19,6.80
2015,11,18,04,20,5.20
2015,11,18,04,21,1.00
2015,11,18,04,22,3.40
2015,11,18,04,23,0.00
2015,11,18,04,24,4.70
2015,11,18,04,25,0.60
2015,11,18,04,26,0.00
2015,11,18,04,27,0.00
2015,11,18,04,28,0.00
2015,11,18,04,29,0.00
2015,11,18,04,30,2.70
2015,11,18,04,31,0.00
2015,11,18,04,32,0.00
2015,11,18,04,33,0.00
2015,11,18,04,34,2.90
2015,11,18,04,35,1.10
2015,11,18,04,36,0.00
2015,11,18,04,37,0.00
2015,11,18,04,38,0.00
2015,11,18,04,39,0.80
2015,11,18,04,40,0.00
2015,11,18,04,41,0.00
2015,11,18,04,42,0.00
2015,11,18,04,43,0.00
2015,11,18,04,44,0.20
2015,11,18,04,45,2.70
2015,11,18,04,46,2.40
2015,11,18,04,47,0.00
2015,11,18,04,48,0.20
2015,11,18,04,49,4.50
2015,11,18,04,50,2.50
2015,11,18,04,51,1.80
2015,11,18,04,52,0.00
2015,11,18,04,53,0.00
2015,11,18,04,54,0.00
2015,11,18,04,55,0.00
2015,11,18,04,56,0.00
2015,11,18,04,57,0.00
2015,11,18,04,58,0.00
2015,11,18,04,59,0.00
2015,11,18,05,00,0.00
2015,11,18,05,01,0.00
2015,11,18,05,02,0.00
2015,11,18,05,03,0.00
2015,11,18,05,04,0.00
2015,11,18,05,05,0.00
2015,11,18,05,06,0.00
2015,11,18,05,07,0.00
2015,11,18,05,08,0.00
2015,11,18,05,09,0.00
2015,11,18,05,10,0.00
2015,11,18,05,11,0.00
2015,11,18,05,12,0.00
2015,11,18,05,13,0.00
2015,11,18,05,14,0.00
2015,11,18,05,15,0.00
2015,11,18,05,16,0.00
2015,11,18,05,17,0.00
2015,11,18,05,18,0.00
2015,11,18,05,19,0.00
2015,11,18,05,20,0.00
2015,11,18,05,21,0.00
2015,11,18,05,22,0.00
2015,11,18,05,23,0.00
2015,11,18,05,24,0.00
2015,11,18,05,25,0.00
2015,11,18,05,26,0.00
2015,11,18,05,27,0.00
2015,11,18,05,28,0.00
2015,11,18,05,29,0.00
2015,11,18,05,30,0.00
2015,11,18,05,31,0.00
2015,11,18,05,32,0.00
2015,11,18,05,33,0.00
2015,11,18,05,34,0.00
2015,11,18,05,35,0.00
2015,11,18,05,36,0.00
2015,11,18,05,37,0.00
2015,11,18,05,38,0.00
2015,11,18,05,39,0.00
2015,11,18,05,40,0.00
2015,11,18,05,41,0.00
2015,11,18,05,42,0.00
2015,11,18,05,43,0.00
2015,11,18,05,44,0.00
2015,11,18,05,45,0.00
2015,11,18,05,46,0.00
2015,11,18,05,47,0.00
2015,11,18,05,48,0.00
2015,11,18,05,49,0.00
2015,11,18,05,50,0.00
2015,11,18,05,51,0.00
2015,11,18,05,52,0.00
2015,11,18,05,53,0.00
2015,11,18,05,54,0.00
2015,11,18,05,55,0.00
2015,11,18,05,56,0.00
2015,11,18,05,57,0.00
2015,11,18,05,58,0.00
2015,11,18,05,59,0.00
2015,11,18,06,00,0.00
2015,11,18,06,01,0.00
2015,11,18,06,02,0.00
2015,11,18,06,03,0.00
2015,11,18,06,04,0.00
2015,11,18,06,05,0.00
2015,11,18,06,06,0.00
2015,11,18,06,07,0.00
2015,11,18,06,08,0.00
2015,11,18,06,09,0.00
2015,11,18,06,10,0.00
2015,11,18,06,11,0.00
2015,11,18,06,12,0.00
2015,11,18,06,13,0.00
2015,11,18,06,14,0.00
2015,11,18,06,15,0.00
2015,11,18,06,16,0.00
2015,11,18,06,17,0.00
2015,11,18,06,18,0.00
2015,11,18,06,19,0.00
2015,11,18,06,20,0.00
2015,11,18,06,21,0.00
2015,11,18,06,22,0.00
2015,11,18,06,23,0.00
2015,11,18,06,24,0.00
2015,11,18,06,25,0.00
2015,11,18,06,26,0.00
2015,11,18,06,27,0.00
2015,11,18,06,28,0.00
2015,11,18,06,29,0.00
2015,11,18,06,30,0.00
2015,11,18,06,31,0.00
2015,11,18,06,32,0.00
2015,11,18,06,33,0.00
2015,11,18,06,34,0.00
2015,11,18,06,35,0.00
2015,11,18,06,36,0.00
2015,11,18,06,37,0.00
2015,11,18,06,38,0.00
2015,11,18,06,39,0.00
2015,11,18,06,40,0.00
2015,11,18,06,41,0.00
2015,11,18,06,42,0.00
2015,11,18,06,43,0.00
2015,11,18,06,44,0.00
2015,11,18,06,45,0.00
2015,11,18,06,46,0.00
2015,11,18,06,47,0.00
2015,11,18,06,48,0.10
2015,11,18,06,49,0.00
2015,11,18,06,50,0.00
2015,11,18,06,51,0.00
2015,11,18,06,52,0.00
2015,11,18,06,53,0.00
2015,11,18,06,54,0.00
2015,11,18,06,55,0.00
2015,11,18,06,56,0.00
2015,11,18,06,57,0.00
2015,11,18,06,58,0.00
2015,11,18,06,59,0.00
2015,11,18,07,00,0.00
2015,11,18,07,01,0.00
2015,11,18,07,02,0.00
2015,11,18,07,03,0.00
2015,11,18,07,04,0.00
2015,11,18,07,05,0.00
2015,11,18,07,06,0.00
2015,11,18,07,07,0.00
2015,11,18,07,08,0.00
2015,11,18,07,09,0.00
2015,11,18,07,10,0.00
2015,11,18,07,11,0.00
2015,11,18,07,12,0.00
2015,11,18,07,13,0.00
2015,11,18,07,14,0.00
2015,11,18,07,15,0.00
2015,11,18,07,16,0.00
2015,11,18,07,17,0.00
2015,11,18,07,18,0.00
2015,11,18,07,19,0.00
2015,11,18,07,20,0.00
2015,11,18,07,21,0.00
2015,11,18,07,22,0.00
2015,11,18,07,23,0.00
2015,11,18,07,24,0.00
2015,11,18,07,25,0.00
2015,11,18,07,26,0.00
2015,11,18,07,27,0.00
2015,11,18,07,28,0.00
2015,11,18,07,29,0.00
2015,11,18,07,30,0.00
2015,11,18,07,31,0.00
2015,11,18,07,32,0.00
2015,11,18,07,33,0.00
2015,11,18,07,34,0.00
2015,11,18,07,35,0.00
2015,11,18,07,36,0.00
2015,11,18,07,37,0.00
2015,11,18,07,38,0.00
2015,11,18,07,39,0.00
2015,11,18,07,40,0.00
2015,11,18,07,41,0.00
2015,11,18,07,42,0.00
2015,11,18,07,43,0.00
2015,11,18,07,44,0.00
2015,11,18,07,45,0.00
2015,11,18,07,46,0.00
2015,11,18,07,47,0.00
2015,11,18,07,48,0.00
2015,11,18,07,49,0.00
2015,11,18,07,50,0.00
2015,11,18,07,51,0.00
2015,11,18,07,52,0.00
2015,11,18,07,53,0.00
2015,11,18,07,54,0.00
2015,11,18,07,55,0.00
2015,11,18,07,56,0.00
2015,11,18,07,57,0.00
2015,11,18,07,58,0.00
2015,11,18,07,59,0.00
2015,11,18,08,00,0.00
2015,11,18,08,01,0.00
2015,11,18,08,02,0.00
2015,11,18,08,03,0.00
2015,11,18,08,04,0.00
2015,11,18,08,05,0.00
2015,11,18,08,06,0.00
2015,11,18,08,07,0.00
2015,11,18,08,08,0.00
2015,11,18,08,09,0.00
2015,11,18,08,10,0.00
2015,11,18,08,11,0.00
2015,11,18,08,12,0.00
2015,11,18,08,13,0.00
2015,11,18,08,14,0.00
2015,11,18,08,15,0.00
2015,11,18,08,16,0.00
2015,11,18,08,17,0.00
2015,11,18,08,18,0.00
2015,11,18,08,19,0.00
2015,11,18,08,20,0.00
2015,11,18,08,21,0.00
2015,11,18,08,22,0.00
2015,11,18,08,23,0.00
2015,11,18,08,24,0.00
2015,11,18,08,25,0.00
2015,11,18,08,26,0.00
2015,11,18,08,27,0.00
2015,11,18,08,28,0.00
2015,11,18,08,29,0.00
2015,11,18,08,30,0.00
2015,11,18,08,31,0.00
2015,11,18,08,32,0.00
2015,11,18,08,33,0.00
2015,11,18,08,34,0.20
2015,11,18,08,35,0.00
2015,11,18,08,36,0.00
2015,11,18,08,37,0.00
2015,11,18,08,38,0.00
2015,11,18,08,39,0.00
2015,11,18,08,40,0.00
2015,11,18,08,41,0.00
2015,11,18,08,42,0.00
2015,11,18,08,43,0.00
2015,11,18,08,44,0.00
2015,11,18,08,45,1.30
2015,11,18,08,46,0.00
2015,11,18,08,47,0.00
2015,11,18,08,48,0.00
2015,11,18,08,49,0.00
2015,11,18,08,50,0.00
2015,11,18,08,51,0.00
2015,11,18,08,52,0.00
2015,11,18,08,53,2.20
2015,11,18,08,54,2.40
2015,11,18,08,55,0.00
2015,11,18,08,56,0.00
2015,11,18,08,57,0.00
2015,11,18,08,58,0.00
2015,11,18,08,59,0.00
2015,11,18,09,00,0.00
2015,11,18,09,01,0.00
2015,11,18,09,02,0.00
2015,11,18,09,03,0.00
2015,11,18,09,04,0.00
2015,11,18,09,05,0.00
2015,11,18,09,06,0.00
2015,11,18,09,07,0.00
2015,11,18,09,08,0.00
2015,11,18,09,09,0.00
2015,11,18,09,10,0.00
2015,11,18,09,11,0.00
2015,11,18,09,12,0.00
2015,11,18,09,13,0.00
2015,11,18,09,14,0.00
2015,11,18,09,15,0.00
2015,11,18,09,16,0.00
2015,11,18,09,17,0.00
2015,11,18,09,18,0.00
2015,11,18,09,19,0.00
2015,11,18,09,20,0.00
2015,11,18,09,21,0.00
2015,11,18,09,22,0.00
2015,11,18,09,23,0.00
2015,11,18,09,24,0.00
2015,11,18,09,25,0.00
2015,11,18,09,26,0.00
2015,11,18,09,27,0.00
2015,11,18,09,28,0.00
2015,11,18,09,29,0.00
2015,11,18,09,30,0.00
2015,11,18,09,31,0.00
2015,11,18,09,32,3.90
2015,11,18,09,33,0.60
2015,11,18,09,34,4.10
2015,11,18,09,35,2.20
2015,11,18,09,36,0.00
2015,11,18,09,37,0.00
2015,11,18,09,38,0.00
2015,11,18,09,39,1.20
2015,11,18,09,40,0.00
2015,11,18,09,41,1.60
2015,11,18,09,42,0.00
2015,11,18,09,43,3.10
2015,11,18,09,44,2.60
2015,11,18,09,45,0.60
2015,11,18,09,46,0.00
2015,11,18,09,47,1.00
2015,11,18,09,48,0.00
2015,11,18,09,49,0.00
2015,11,18,09,50,0.00
2015,11,18,09,51,0.00
2015,11,18,09,52,0.00
2015,11,18,09,53,0.00
2015,11,18,09,54,0.00
2015,11,18,09,55,0.00
2015,11,18,09,56,2.20
2015,11,18,09,57,3.50
2015,11,18,09,58,0.00
2015,11,18,09,59,4.60
2015,11,18,10,00,4.70
2015,11,18,10,01,5.10
2015,11,18,10,02,7.70
2015,11,18,10,03,5.20
2015,11,18,10,04,4.70
2015,11,18,10,05,1.10
2015,11,18,10,06,3.20
2015,11,18,10,07,2.70
2015,11,18,10,08,0.00
2015,11,18,10,09,0.00
2015,11,18,10,10,3.10
2015,11,18,10,11,1.10
2015,11,18,10,12,0.00
2015,11,18,10,13,1.50
2015,11,18,10,14,0.00
2015,11,18,10,15,0.00
2015,11,18,10,16,0.00
2015,11,18,10,17,4.60
2015,11,18,10,18,0.00
2015,11,18,10,19,0.00
2015,11,18,10,20,0.00
2015,11,18,10,21,0.00
2015,11,18,10,22,0.00
2015,11,18,10,23,0.00
2015,11,18,10,24,0.00
2015,11,18,10,25,0.00
2015,11,18,10,26,2.90
2015,11,18,10,27,0.60
2015,11,18,10,28,0.20
2015,11,18,10,29,0.20
2015,11,18,10,30,0.20
2015,11,18,10,31,1.30
2015,11,18,10,32,0.80
2015,11,18,10,33,0.00
2015,11,18,10,34,0.00
2015,11,18,10,35,0.00
2015,11,18,10,36,0.00
2015,11,18,10,37,0.00
2015,11,18,10,38,1.20
2015,11,18,10,39,2.70
2015,11,18,10,40,1.70
2015,11,18,10,41,1.90
2015,11,18,10,42,3.10
2015,11,18,10,43,4.60
2015,11,18,10,44,1.80
2015,11,18,10,45,10.70
2015,11,18,10,46,10.50
2015,11,18,10,47,6.40
2015,11,18,10,48,9.30
2015,11,18,10,49,9.20
2015,11,18,10,50,5.50
2015,11,18,10,51,5.80
2015,11,18,10,52,7.10
2015,11,18,10,53,7.20
2015,11,18,10,54,9.20
2015,11,18,10,55,6.30
2015,11,18,10,56,4.80
2015,11,18,10,57,4.70
2015,11,18,10,58,3.10
2015,11,18,10,59,3.80
2015,11,18,11,00,6.50
2015,11,18,11,01,8.20
2015,11,18,11,02,7.70
2015,11,18,11,03,10.50
2015,11,18,11,04,8.10
2015,11,18,11,05,9.70
2015,11,18,11,06,8.30
2015,11,18,11,07,9.20
2015,11,18,11,08,6.50
2015,11,18,11,09,1.50
2015,11,18,11,10,0.00
2015,11,18,11,11,1.40
2015,11,18,11,12,7.80
2015,11,18,11,13,6.50
2015,11,18,11,14,4.10
2015,11,18,11,15,8.40
2015,11,18,11,16,5.20
2015,11,18,11,17,7.70
2015,11,18,11,18,0.60
2015,11,18,11,19,0.00
2015,11,18,11,20,0.00
2015,11,18,11,21,1.50
2015,11,18,11,22,7.20
2015,11,18,11,23,8.90
2015,11,18,11,24,5.20
2015,11,18,11,25,2.80
2015,11,18,11,26,5.60
2015,11,18,11,27,4.80
2015,11,18,11,28,1.60
2015,11,18,11,29,3.70
2015,11,18,11,30,4.10
2015,11,18,11,31,1.40
2015,11,18,11,32,2.30
2015,11,18,11,33,0.00
2015,11,18,11,34,0.00
2015,11,18,11,35,0.00
2015,11,18,11,36,0.00
2015,11,18,11,37,0.00
2015,11,18,11,38,0.00
2015,11,18,11,39,1.40
2015,11,18,11,40,0.00
2015,11,18,11,41,0.00
2015,11,18,11,42,1.00
2015,11,18,11,43,7.00
2015,11,18,11,44,4.30
2015,11,18,11,45,10.80
2015,11,18,11,46,2.50
2015,11,18,11,47,3.40
2015,11,18,11,48,0.00
2015,11,18,11,49,5.60
2015,11,18,11,50,13.60
2015,11,18,11,51,4.80
2015,11,18,11,52,8.30
2015,11,18,11,53,1.80
2015,11,18,11,54,5.60
2015,11,18,11,55,9.10
2015,11,18,11,56,8.10
2015,11,18,11,57,10.40
2015,11,18,11,58,4.90
2015,11,18,11,59,6.40
2015,11,18,12,00,6.30
2015,11,18,12,01,2.80
2015,11,18,12,02,6.10
2015,11,18,12,03,6.10
2015,11,18,12,04,4.00
2015,11,18,12,05,5.80
2015,11,18,12,06,12.70
2015,11,18,12,07,6.70
2015,11,18,12,08,3.50
2015,11,18,12,09,7.00
2015,11,18,12,10,0.80
2015,11,18,12,11,2.20
2015,11,18,12,12,8.80
2015,11,18,12,13,9.30
2015,11,18,12,14,6.60
2015,11,18,12,15,2.00
2015,11,18,12,16,5.50
2015,11,18,12,17,6.00
2015,11,18,12,18,2.10
2015,11,18,12,19,4.40
2015,11,18,12,20,8.90
2015,11,18,12,21,8.00
2015,11,18,12,22,7.10
2015,11,18,12,23,6.70
2015,11,18,12,24,9.40
2015,11,18,12,25,4.20
2015,11,18,12,26,2.50
2015,11,18,12,27,0.60
2015,11,18,12,28,3.00
2015,11,18,12,29,1.80
2015,11,18,12,30,4.90
2015,11,18,12,31,0.70
2015,11,18,12,32,1.90
2015,11,18,12,33,10.50
2015,11,18,12,34,9.10
2015,11,18,12,35,9.50
2015,11,18,12,36,5.80
2015,11,18,12,37,8.90
2015,11,18,12,38,11.80
2015,11,18,12,39,7.90
2015,11,18,12,40,5.90
2015,11,18,12,41,3.90
2015,11,18,12,42,9.40
2015,11,18,12,43,9.70
2015,11,18,12,44,8.90
2015,11,18,12,45,6.00
2015,11,18,12,46,6.90
2015,11,18,12,47,1.10
2015,11,18,12,48,8.40
2015,11,18,12,49,9.90
2015,11,18,12,50,7.20
2015,11,18,12,51,7.00
2015,11,18,12,52,5.10
2015,11,18,12,53,10.30
2015,11,18,12,54,4.10
2015,11,18,12,55,5.20
2015,11,18,12,56,6.60
2015,11,18,12,57,8.50
2015,11,18,12,58,3.60
2015,11,18,12,59,10.80
2015,11,18,13,00,14.00
2015,11,18,13,01,13.00
2015,11,18,13,02,8.00
2015,11,18,13,03,8.90
2015,11,18,13,04,10.10
2015,11,18,13,05,7.80
2015,11,18,13,06,8.50
2015,11,18,13,07,4.30
2015,11,18,13,08,2.00
2015,11,18,13,09,3.90
2015,11,18,13,10,6.60
2015,11,18,13,11,7.90
2015,11,18,13,12,1.40
2015,11,18,13,13,4.40
2015,11,18,13,14,8.80
2015,11,18,13,15,6.80
2015,11,18,13,16,2.00
2015,11,18,13,17,8.60
2015,11,18,13,18,6.50
2015,11,18,13,19,7.50
2015,11,18,13,20,6.10
2015,11,18,13,21,7.10
2015,11,18,13,22,12.10
2015,11,18,13,23,10.50
2015,11,18,13,24,6.70
2015,11,18,13,25,6.10
2015,11,18,13,26,10.90
2015,11,18,13,27,7.10
2015,11,18,13,28,2.70
2015,11,18,13,29,1.40
2015,11,18,13,30,0.00
2015,11,18,13,31,1.10
2015,11,18,13,32,6.40
2015,11,18,13,33,4.10
2015,11,18,13,34,3.40
2015,11,18,13,35,5.80
2015,11,18,13,36,2.20
2015,11,18,13,37,2.50
2015,11,18,13,38,6.30
2015,11,18,13,39,5.90
2015,11,18,13,40,8.10
2015,11,18,13,41,8.80
2015,11,18,13,42,9.30
2015,11,18,13,43,4.30
2015,11,18,13,44,1.40
2015,11,18,13,45,7.40
2015,11,18,13,46,8.60
2015,11,18,13,47,5.40
2015,11,18,13,48,6.30
2015,11,18,13,49,8.90
2015,11,18,13,50,1.60
2015,11,18,13,51,6.70
2015,11,18,13,52,6.80
2015,11,18,13,53,8.50
2015,11,18,13,54,8.90
2015,11,18,13,55,3.70
2015,11,18,13,56,0.00
2015,11,18,13,57,3.90
2015,11,18,13,58,6.00
2015,11,18,13,59,8.30
2015,11,18,14,00,4.70
2015,11,18,14,01,6.10
2015,11,18,14,02,8.10
2015,11,18,14,03,8.30
2015,11,18,14,04,9.70
2015,11,18,14,05,5.80
2015,11,18,14,06,4.20
2015,11,18,14,07,8.40
2015,11,18,14,08,6.90
2015,11,18,14,09,12.80
2015,11,18,14,10,7.10
2015,11,18,14,11,12.20
2015,11,18,14,12,8.70
2015,11,18,14,13,11.10
2015,11,18,14,14,10.30
2015,11,18,14,15,8.00
2015,11,18,14,16,10.70
2015,11,18,14,17,4.90
2015,11,18,14,18,4.20
2015,11,18,14,19,0.70
2015,11,18,14,20,0.90
2015,11,18,14,21,5.60
2015,11,18,14,22,6.20
2015,11,18,14,23,6.80
2015,11,18,14,24,6.40
2015,11,18,14,25,2.00
2015,11,18,14,26,7.50
2015,11,18,14,27,5.80
2015,11,18,14,28,4.40
2015,11,18,14,29,0.00
2015,11,18,14,30,2.30
2015,11,18,14,31,1.00
2015,11,18,14,32,5.60
2015,11,18,14,33,6.90
2015,11,18,14,34,9.10
2015,11,18,14,35,7.00
2015,11,18,14,36,7.40
2015,11,18,14,37,6.80
2015,11,18,14,38,8.00
2015,11,18,14,39,10.20
2015,11,18,14,40,8.40
2015,11,18,14,41,10.40
2015,11,18,14,42,9.40
2015,11,18,14,43,9.30
2015,11,18,14,44,9.50
2015,11,18,14,45,7.10
2015,11,18,14,46,7.30
2015,11,18,14,47,6.40
2015,11,18,14,48,8.60
2015,11,18,14,49,8.00
2015,11,18,14,50,8.50
2015,11,18,14,51,8.10
2015,11,18,14,52,4.40
2015,11,18,14,53,5.30
2015,11,18,14,54,0.00
2015,11,18,14,55,0.00
2015,11,18,14,56,0.00
2015,11,18,14,57,3.40
2015,11,18,14,58,5.80
2015,11,18,14,59,0.00
2015,11,18,15,00,4.80
2015,11,18,15,01,3.50
2015,11,18,15,02,0.30
2015,11,18,15,03,0.00
2015,11,18,15,04,0.00
2015,11,18,15,05,0.00
2015,11,18,15,06,0.00
2015,11,18,15,07,0.00
2015,11,18,15,08,0.00
2015,11,18,15,09,0.00
2015,11,18,15,10,0.00
2015,11,18,15,11,0.00
2015,11,18,15,12,0.00
2015,11,18,15,13,0.00
2015,11,18,15,14,0.00
2015,11,18,15,15,0.00
2015,11,18,15,16,0.00
2015,11,18,15,17,5.40
2015,11,18,15,18,1.70
2015,11,18,15,19,0.00
2015,11,18,15,20,3.90
2015,11,18,15,21,4.60
2015,11,18,15,22,0.00
2015,11,18,15,23,3.40
2015,11,18,15,24,2.50
2015,11,18,15,25,3.80
2015,11,18,15,26,6.10
2015,11,18,15,27,2.80
2015,11,18,15,28,3.10
2015,11,18,15,29,5.80
2015,11,18,15,30,5.10
2015,11,18,15,31,1.40
2015,11,18,15,32,0.60
2015,11,18,15,33,4.80
2015,11,18,15,34,2.10
2015,11,18,15,35,0.00
2015,11,18,15,36,0.00
2015,11,18,15,37,0.00
2015,11,18,15,38,0.00
2015,11,18,15,39,0.00
2015,11,18,15,40,0.00
2015,11,18,15,41,1.60
2015,11,18,15,42,0.10
2015,11,18,15,43,0.00
2015,11,18,15,44,0.00
2015,11,18,15,45,0.00
2015,11,18,15,46,1.90
2015,11,18,15,47,5.40
2015,11,18,15,48,3.40
2015,11,18,15,49,0.00
2015,11,18,15,50,0.00
2015,11,18,15,51,0.00
2015,11,18,15,52,0.00
2015,11,18,15,53,0.00
2015,11,18,15,54,0.00
2015,11,18,15,55,0.00
2015,11,18,15,56,0.00
2015,11,18,15,57,0.00
2015,11,18,15,58,0.00
2015,11,18,15,59,0.00
2015,11,18,16,00,0.00
2015,11,18,16,01,1.80
2015,11,18,16,02,2.80
2015,11,18,16,03,0.00
2015,11,18,16,04,0.00
2015,11,18,16,05,0.00
2015,11,18,16,06,0.00
2015,11,18,16,07,0.00
2015,11,18,16,08,0.00
2015,11,18,16,09,0.00
2015,11,18,16,10,0.00
2015,11,18,16,11,0.00
2015,11,18,16,12,0.00
2015,11,18,16,13,0.00
2015,11,18,16,14,0.00
2015,11,18,16,15,0.00
2015,11,18,16,16,0.00
2015,11,18,16,17,0.00
2015,11,18,16,18,0.00
2015,11,18,16,19,0.00
2015,11,18,16,20,0.00
2015,11,18,16,21,0.00
2015,11,18,16,22,0.00
2015,11,18,16,23,0.00
2015,11,18,16,24,0.00
2015,11,18,16,25,0.00
2015,11,18,16,26,0.00
2015,11,18,16,27,0.00
2015,11,18,16,28,0.00
2015,11,18,16,29,0.00
2015,11,18,16,30,0.00
2015,11,18,16,31,0.00
2015,11,18,16,32,0.00
2015,11,18,16,33,0.00
2015,11,18,16,34,0.00
2015,11,18,16,35,0.00
2015,11,18,16,36,0.00
2015,11,18,16,37,0.00
2015,11,18,16,38,0.00
2015,11,18,16,39,0.00
2015,11,18,16,40,0.00
2015,11,18,16,41,0.00
2015,11,18,16,42,0.00
2015,11,18,16,43,0.00
2015,11,18,16,44,0.00
2015,11,18,16,45,0.00
2015,11,18,16,46,0.00
2015,11,18,16,47,0.00
2015,11,18,16,48,0.00
2015,11,18,16,49,0.00
2015,11,18,16,50,0.00
2015,11,18,16,51,0.00
2015,11,18,16,52,0.00
2015,11,18,16,53,0.00
2015,11,18,16,54,0.00
2015,11,18,16,55,0.00
2015,11,18,16,56,0.00
2015,11,18,16,57,0.00
2015,11,18,16,58,0.00
2015,11,18,16,59,0.00
2015,11,18,17,00,0.00
2015,11,18,17,01,0.00
2015,11,18,17,02,0.00
2015,11,18,17,03,0.00
2015,11,18,17,04,0.00
2015,11,18,17,05,0.00
2015,11,18,17,06,0.00
2015,11,18,17,07,0.00
2015,11,18,17,08,0.00
2015,11,18,17,09,0.00
2015,11,18,17,10,0.00
2015,11,18,17,11,0.00
2015,11,18,17,12,0.00
2015,11,18,17,13,0.00
2015,11,18,17,14,0.00
2015,11,18,17,15,0.00
2015,11,18,17,16,0.00
2015,11,18,17,17,0.00
2015,11,18,17,18,0.00
2015,11,18,17,19,0.00
2015,11,18,17,20,0.00
2015,11,18,17,21,0.00
2015,11,18,17,22,0.00
2015,11,18,17,23,0.00
2015,11,18,17,24,0.00
2015,11,18,17,25,0.00
2015,11,18,17,26,0.00
2015,11,18,17,27,0.00
2015,11,18,17,28,0.00
2015,11,18,17,29,0.00
2015,11,18,17,30,0.00
2015,11,18,17,31,0.00
2015,11,18,17,32,0.00
2015,11,18,17,33,0.00
2015,11,18,17,34,0.00
2015,11,18,17,35,0.00
2015,11,18,17,36,1.50
2015,11,18,17,37,0.00
2015,11,18,17,38,0.00
2015,11,18,17,39,0.00
2015,11,18,17,40,0.00
2015,11,18,17,41,0.00
2015,11,18,17,42,0.00
2015,11,18,17,43,0.00
2015,11,18,17,44,0.00
2015,11,18,17,45,0.00
2015,11,18,17,46,0.00
2015,11,18,17,47,0.00
2015,11,18,17,48,0.50
2015,11,18,17,49,0.40
2015,11,18,17,50,0.00
2015,11,18,17,51,0.00
2015,11,18,17,52,0.00
2015,11,18,17,53,0.00
2015,11,18,17,54,0.00
2015,11,18,17,55,0.00
2015,11,18,17,56,0.00
2015,11,18,17,57,0.00
2015,11,18,17,58,0.00
2015,11,18,17,59,0.00
2015,11,18,18,00,0.00
2015,11,18,18,01,0.00
2015,11,18,18,02,0.00
2015,11,18,18,03,0.00
2015,11,18,18,04,0.00